Flag for Puerto Rico Weather past 2 weeks in San Juan, Puerto Rico

Now
77 °F

Passing clouds.


Feels Like: 79 °F
Forecast: 76 / 86 °F
Wind: No wind

Location: Luis Munoz Marin

Current Time: Jan 26, 2015 at 11:25:38 PM

Latest Report: Jan 26, 2015 at 10:56 PM


Visibility: 10 mi

Pressure: 30.02 "Hg

Humidity: 82%

Dew point: 71 °F

Location of San JuanLocation

Historic Weather in San Juan — Graph

°F

San Juan temperature yesterday

Maximum temperature yesterday: 85 °F (at 11:56 AM)
Minimum temperature yesterday: 72 °F (at 6:56 AM)
Average temperature yesterday: 78 °F

Past Weeks' High & Low Weather Summary

 TemperatureHumidityPressure
High87 °F (Jan 16, 12:56 PM)100% (Jan 12, 3:56 AM)30.14 "Hg (Jan 12, 3:56 AM)
Low72 °F (Jan 16, 5:56 AM)53% (Jan 26, 1:56 PM)29.93 "Hg (Jan 16, 3:56 PM)
Average78 °F81%30.01 "Hg
* Reported Jan 11 9:56 PM — Jan 26 9:56 PM, San Juan, Weather by CustomWeather, © 2014

Note: Actual official high and low records may vary slightly from our data, if they occured in-between our weather recording intervals... More about our weather records

Advertising

San Juan weather history for previous 24 hours

 ConditionsComfort  
Time TempWeatherWind HumidityBarometerVisibility
9:56 PM
Jan 26
79 °FPassing clouds.3 mph74%30.02 "Hg10 mi
8:56 PM77 °FPassing clouds.6 mph85%30.02 "Hg10 mi
7:56 PM79 °FPassing clouds.3 mph77%30.00 "Hg10 mi
6:56 PM80 °FScattered clouds.3 mph74%29.98 "Hg10 mi
5:56 PM81 °FScattered clouds.10 mph72%29.96 "Hg10 mi
4:56 PM83 °FScattered clouds.12 mph68%29.96 "Hg10 mi
3:56 PM83 °FScattered clouds.14 mph65%29.95 "Hg10 mi
2:56 PM85 °FScattered clouds.15 mph61%29.96 "Hg10 mi
1:56 PM86 °FScattered clouds.14 mph53%29.97 "Hg10 mi
12:56 PM87 °FScattered clouds.10 mph55%29.98 "Hg10 mi
11:56 AM85 °FScattered clouds.16 mph57%30.01 "Hg10 mi
10:56 AM83 °FScattered clouds.14 mph70%30.03 "Hg10 mi
9:56 AM82 °FScattered clouds.8 mph72%30.04 "Hg10 mi
8:56 AM78 °FScattered clouds.6 mph82%30.03 "Hg10 mi
7:56 AM76 °FPassing clouds.No wind85%30.00 "Hg10 mi
6:56 AM73 °FPassing clouds.No wind90%29.98 "Hg10 mi
5:56 AM73 °FPassing clouds.No wind90%29.96 "Hg10 mi
4:56 AM73 °FPassing clouds.No wind90%29.96 "Hg10 mi
3:56 AM74 °FPassing clouds.No wind91%29.96 "Hg10 mi
2:56 AM74 °FPassing clouds.No wind88%29.96 "Hg10 mi
1:56 AM74 °FPassing clouds.No wind88%29.98 "Hg10 mi
12:56 AM75 °FPassing clouds.No wind85%30.01 "Hg10 mi
11:56 PM
Jan 25
76 °FPassing clouds.No wind82%30.02 "Hg10 mi
Weather by CustomWeather, © 2014

See weather overviewHow to use our weather pages